EET,Max TemperatureF,Mean TemperatureF,Min TemperatureF,Max Dew PointF,MeanDew PointF,Min DewpointF,Max Humidity, Mean Humidity, Min Humidity, Max Sea Level PressureIn, Mean Sea Level PressureIn, Min Sea Level PressureIn, Max VisibilityMiles, Mean VisibilityMiles, Min VisibilityMiles, Max Wind SpeedMPH, Mean Wind SpeedMPH, Max Gust SpeedMPH,PrecipitationIn, CloudCover, Events, WindDirDegrees
2011-11-1,64,56,48,43,39,36,71,55,40,30.18,30.14,30.09,6,6,6,9,5,,0.00,2,,298
2011-11-2,64,55,46,45,40,36,76,58,37,30.18,30.13,30.09,6,6,6,15,7,,0.00,1,,346
2011-11-3,64,56,48,45,40,37,76,58,39,30.12,30.10,30.06,6,6,6,14,5,,0.00,2,,348
2011-11-4,64,55,46,45,41,39,87,61,42,30.15,30.14,30.12,6,6,6,12,6,30,0.00,2,,353
2011-11-5,66,58,50,48,43,39,88,61,43,30.18,30.16,30.12,6,6,6,13,6,,0.00,1,,331
2011-11-6,68,56,44,46,44,37,82,64,40,30.27,30.21,30.18,6,6,5,12,1,,0.00,2,,272
2011-11-7,68,60,53,48,47,45,77,61,46,30.36,30.29,30.27,6,6,6,13,8,,0.00,4,,333
2011-11-8,64,60,55,48,46,45,72,63,52,30.36,30.32,30.27,6,6,6,18,12,,0.00,1,,337
2011-11-9,64,57,50,54,49,45,88,73,59,30.30,30.18,30.06,6,6,6,7,2,,0.00,3,,350
2011-11-10,68,60,51,55,51,46,82,73,56,30.06,30.01,29.98,6,6,5,7,1,,0.00,4,,165
2011-11-11,64,58,53,50,46,39,88,68,49,30.27,30.12,30.04,6,6,6,15,4,,0.00,4,,17
2011-11-12,55,50,46,39,36,32,66,57,44,30.33,30.29,30.27,6,6,6,16,11,32,0.00,6,,1
2011-11-13,48,46,44,39,37,34,76,69,58,30.27,30.23,30.18,6,6,4,17,11,37,0.00,6,Rain,342
2011-11-14,50,48,46,39,38,36,76,70,58,30.18,30.09,30.01,6,6,5,17,12,33,0.00,6,Rain,342
2011-11-15,51,50,48,37,36,34,66,59,54,30.12,30.04,30.01,6,6,5,18,11,28,0.00,5,,321
2011-11-16,53,48,42,36,34,32,66,56,47,30.18,30.14,30.12,6,6,6,12,5,,0.00,4,,316
2011-11-17,53,46,39,39,36,32,81,68,54,30.27,30.22,30.18,6,6,6,12,5,,0.00,4,,341
2011-11-18,53,48,42,41,36,32,81,62,44,30.27,30.23,30.21,6,6,6,14,5,,0.00,3,,340
2011-11-19,59,52,44,39,37,34,71,59,45,30.24,30.19,30.12,6,6,6,12,7,,0.00,1,,331
2011-11-20,59,52,46,41,38,36,71,59,48,30.21,30.19,30.15,6,6,6,12,8,,0.00,1,,330
2011-11-21,59,52,42,41,38,36,76,62,48,30.24,30.22,30.18,6,6,6,12,7,,0.00,1,,324
2011-11-22,59,50,41,43,40,34,81,71,51,30.27,30.23,30.18,6,6,6,6,1,,0.00,3,,323
2011-11-23,60,54,48,46,43,41,82,68,52,30.27,30.25,30.21,6,6,5,8,3,,0.00,4,,5
2011-11-24,59,55,51,41,39,36,62,57,45,30.33,30.30,30.24,6,6,6,16,10,30,0.00,2,,342
2011-11-25,55,52,48,39,36,32,62,55,44,30.36,30.33,30.30,6,6,6,23,13,34,0.00,1,,347
2011-11-26,53,50,46,39,37,32,71,63,54,30.30,30.27,30.24,6,6,6,10,6,,0.00,3,,327
2011-11-27,57,50,44,37,36,34,71,59,44,30.30,30.28,30.24,6,6,6,16,6,,0.00,2,,329
2011-11-28,60,48,37,43,36,30,76,64,41,30.27,30.23,30.18,6,6,5,6,2,,0.00,1,,342
2011-11-29,60,50,41,43,39,32,81,62,39,30.30,30.27,30.24,6,6,4,16,5,26,0.00,3,,330
2011-11-30,60,55,50,43,41,39,71,60,48,30.27,30.26,30.24,6,6,6,15,10,,0.00,2,,337